When you browse on this site, cookies collect data to enhance your experience and personalize the content and advertising you see.
Visit our Privacy Policy to learn more. By continuing to use the site, you agree to this use of cookies and data.
  • în România
  • Lista ţărilor
  • Pe 7 zile
  • Temperatura apei
  • Hartă satelitară
  • Meteo pe hartă
  • Widget-uri
  • user-avatar
    Intrare

    Meteo pe oră la Hangal

    Astăzi, 17 Februarie, Duminică

    Timp Temperatura Precipitaţii Vânt Presiune Umiditate
    00:00 +24°C° 0 mm 1 m/s 712 mmHg 47%
    01:00 +23°C° 0 mm 1 m/s 711 mmHg 48%
    02:00 +23°C° 0 mm 1 m/s 711 mmHg 48%
    03:00 +23°C° 0 mm 1 m/s 711 mmHg 48%
    04:00 +20°C° 0 mm 0 m/s 711 mmHg 48%
    05:00 +20°C° 0 mm 0 m/s 711 mmHg 50%
    06:00 +23°C° 0 mm 1 m/s 712 mmHg 46%
    07:00 +25°C° 0 mm 1 m/s 712 mmHg 42%
    08:00 +26°C° 0 mm 1 m/s 713 mmHg 38%
    09:00 +28°C° 0 mm 2 m/s 713 mmHg 32%
    10:00 +31°C° 0 mm 3 m/s 713 mmHg 26%
    11:00 +34°C° 0 mm 4 m/s 714 mmHg 22%
    12:00 +35°C° 0 mm 4 m/s 713 mmHg 21%
    13:00 +35°C° 0 mm 5 m/s 712 mmHg 20%
    14:00 +36°C° 0 mm 5 m/s 712 mmHg 19%
    15:00 +35°C° 0 mm 5 m/s 711 mmHg 20%
    16:00 +34°C° 0 mm 5 m/s 711 mmHg 22%
    17:00 +33°C° 0 mm 5 m/s 711 mmHg 24%
    18:00 +30°C° 0 mm 4 m/s 711 mmHg 31%
    19:00 +27°C° 0 mm 3 m/s 711 mmHg 39%
    20:00 +25°C° 0 mm 2 m/s 711 mmHg 46%
    21:00 +24°C° 0 mm 2 m/s 711 mmHg 50%
    22:00 +23°C° 0 mm 2 m/s 711 mmHg 53%
    23:00 +21°C° 0 mm 2 m/s 710 mmHg 57%

    Mâine, 18 Februarie, Luni

    Timp Temperatura Precipitaţii Vânt Presiune Umiditate
    00:00 +21°C° 0 mm 2 m/s 710 mmHg 57%
    01:00 +21°C° 0 mm 1 m/s 710 mmHg 57%
    02:00 +21°C° 0 mm 1 m/s 709 mmHg 57%
    03:00 +20°C° 0 mm 1 m/s 709 mmHg 58%
    04:00 +20°C° 0 mm 1 m/s 709 mmHg 59%
    05:00 +19°C° 0 mm 1 m/s 709 mmHg 60%
    06:00 +21°C° 0 mm 1 m/s 710 mmHg 54%
    07:00 +22°C° 0 mm 1 m/s 711 mmHg 49%
    08:00 +24°C° 0 mm 1 m/s 711 mmHg 43%
    09:00 +27°C° 0 mm 1 m/s 712 mmHg 34%
    10:00 +28°C° 0 mm 0 m/s 712 mmHg 26%
    11:00 +32°C° 0 mm 0 m/s 713 mmHg 17%
    12:00 +35°C° 0 mm 1 m/s 712 mmHg 15%
    13:00 +36°C° 0 mm 1 m/s 711 mmHg 13%
    14:00 +37°C° 0 mm 1 m/s 711 mmHg 11%
    15:00 +36°C° 0 mm 1 m/s 710 mmHg 12%
    16:00 +36°C° 0 mm 1 m/s 710 mmHg 12%
    17:00 +35°C° 0 mm 1 m/s 709 mmHg 13%
    18:00 +32°C° 0 mm 2 m/s 710 mmHg 26%
    19:00 +29°C° 0 mm 3 m/s 710 mmHg 39%
    20:00 +26°C° 0 mm 3 m/s 710 mmHg 52%
    21:00 +25°C° 0 mm 3 m/s 710 mmHg 58%
    22:00 +24°C° 0 mm 2 m/s 710 mmHg 64%
    23:00 +23°C° 0 mm 2 m/s 710 mmHg 69%

    Poimâine, 19 Februarie, Marţi

    Timp Temperatura Precipitaţii Vânt Presiune Umiditate
    00:00 +21°C° 0 mm 2 m/s 710 mmHg 69%
    01:00 +22°C° 0 mm 1 m/s 709 mmHg 69%
    02:00 +21°C° 0 mm 1 m/s 709 mmHg 69%
    03:00 +21°C° 0 mm 1 m/s 709 mmHg 68%
    04:00 +21°C° 0 mm 1 m/s 709 mmHg 68%
    05:00 +21°C° 0 mm 1 m/s 709 mmHg 67%
    06:00 +22°C° 0 mm 1 m/s 710 mmHg 61%
    07:00 +23°C° 0 mm 1 m/s 710 mmHg 55%
    08:00 +25°C° 0 mm 1 m/s 711 mmHg 50%
    09:00 +28°C° 0 mm 1 m/s 712 mmHg 40%
    10:00 +32°C° 0 mm 1 m/s 712 mmHg 31%
    11:00 +35°C° 0 mm 1 m/s 713 mmHg 21%
    12:00 +36°C° 0 mm 1 m/s 712 mmHg 19%
    13:00 +37°C° 0 mm 1 m/s 712 mmHg 17%
    14:00 +39°C° 0 mm 1 m/s 711 mmHg 15%
    15:00 +39°C° 0 mm 2 m/s 711 mmHg 16%
    16:00 +38°C° 0 mm 2 m/s 710 mmHg 17%
    17:00 +37°C° 0 mm 2 m/s 710 mmHg 18%
    18:00 +34°C° 0 mm 2 m/s 710 mmHg 31%
    19:00 +30°C° 0 mm 3 m/s 711 mmHg 43%
    20:00 +27°C° 0 mm 3 m/s 711 mmHg 56%
    21:00 +26°C° 0 mm 3 m/s 711 mmHg 63%
    22:00 +25°C° 0 mm 2 m/s 711 mmHg 70%
    23:00 +24°C° 0 mm 2 m/s 711 mmHg 77%

    20 Februarie, Miercuri

    Timp Temperatura Precipitaţii Vânt Presiune Umiditate
    00:00 +24°C° 0 mm 1 m/s 711 mmHg 77%
    01:00 +24°C° 0 mm 1 m/s 711 mmHg 76%
    02:00 +24°C° 0 mm 1 m/s 711 mmHg 76%
    03:00 +23°C° 0 mm 1 m/s 710 mmHg 75%
    04:00 +21°C° 0 mm 0 m/s 710 mmHg 75%
    05:00 +21°C° 0 mm 0 m/s 710 mmHg 74%
    06:00 +25°C° 0 mm 1 m/s 711 mmHg 68%
    07:00 +26°C° 0 mm 1 m/s 712 mmHg 61%
    08:00 +27°C° 0 mm 2 m/s 713 mmHg 55%
    09:00 +30°C° 0 mm 3 m/s 713 mmHg 47%
    10:00 +33°C° 0 mm 4 m/s 714 mmHg 40%
    11:00 +36°C° 0 mm 4 m/s 714 mmHg 33%
    12:00 +37°C° 0 mm 5 m/s 713 mmHg 29%
    13:00 +39°C° 0 mm 5 m/s 712 mmHg 25%
    14:00 +40°C° 0 mm 5 m/s 711 mmHg 21%
    15:00 +40°C° 0 mm 5 m/s 711 mmHg 19%
    16:00 +39°C° 0 mm 5 m/s 711 mmHg 18%
    17:00 +39°C° 0 mm 5 m/s 711 mmHg 17%
    18:00 +36°C° 0 mm 4 m/s 712 mmHg 22%
    19:00 +33°C° 0 mm 3 m/s 712 mmHg 27%
    20:00 +30°C° 0 mm 2 m/s 713 mmHg 32%
    21:00 +29°C° 0 mm 2 m/s 713 mmHg 38%
    22:00 +28°C° 0 mm 2 m/s 713 mmHg 44%
    23:00 +26°C° 0 mm 1 m/s 714 mmHg 50%

    21 Februarie, Joi

    Timp Temperatura Precipitaţii Vânt Presiune Umiditate
    00:00 +26°C° 0 mm 1 m/s 713 mmHg 53%
    01:00 +25°C° 0 mm 1 m/s 713 mmHg 56%
    02:00 +24°C° 0 mm 1 m/s 712 mmHg 60%
    03:00 +24°C° 0 mm 1 m/s 712 mmHg 62%
    04:00 +24°C° 0 mm 1 m/s 712 mmHg 63%
    05:00 +23°C° 0 mm 1 m/s 712 mmHg 65%
    06:00 +25°C° 0 mm 1 m/s 713 mmHg 61%
    07:00 +26°C° 0 mm 1 m/s 714 mmHg 56%
    08:00 +27°C° 0 mm 1 m/s 715 mmHg 51%
    09:00 +30°C° 0 mm 2 m/s 715 mmHg 41%
    10:00 +33°C° 0 mm 3 m/s 715 mmHg 31%
    11:00 +36°C° 0 mm 4 m/s 716 mmHg 21%
    12:00 +37°C° 0 mm 4 m/s 715 mmHg 18%
    13:00 +38°C° 0 mm 4 m/s 714 mmHg 16%
    14:00 +40°C° 0 mm 5 m/s 713 mmHg 13%
    15:00 +39°C° 0 mm 5 m/s 712 mmHg 13%
    16:00 +39°C° 0 mm 5 m/s 712 mmHg 13%
    17:00 +37°C° 0 mm 5 m/s 712 mmHg 14%
    18:00 +35°C° 0 mm 4 m/s 712 mmHg 17%
    19:00 +34°C° 0 mm 4 m/s 713 mmHg 19%
    20:00 +31°C° 0 mm 3 m/s 713 mmHg 22%
    21:00 +30°C° 0 mm 3 m/s 713 mmHg 24%
    22:00 +30°C° 0 mm 4 m/s 713 mmHg 26%
    23:00 +29°C° 0 mm 4 m/s 713 mmHg 28%

    22 Februarie, Vineri

    Timp Temperatura Precipitaţii Vânt Presiune Umiditate
    00:00 +28°C° 0 mm 4 m/s 713 mmHg 31%
    01:00 +28°C° 0 mm 3 m/s 712 mmHg 34%
    02:00 +27°C° 0 mm 3 m/s 712 mmHg 36%
    03:00 +26°C° 0 mm 3 m/s 712 mmHg 39%
    04:00 +26°C° 0 mm 3 m/s 712 mmHg 42%
    05:00 +25°C° 0 mm 2 m/s 711 mmHg 45%
    06:00 +26°C° 0 mm 3 m/s 712 mmHg 42%
    07:00 +27°C° 0 mm 3 m/s 713 mmHg 40%
    08:00 +28°C° 0 mm 3 m/s 714 mmHg 38%
    09:00 +32°C° 0 mm 4 m/s 714 mmHg 31%
    10:00 +35°C° 0 mm 4 m/s 714 mmHg 24%
    11:00 +37°C° 0 mm 5 m/s 714 mmHg 17%
    12:00 +39°C° 0 mm 5 m/s 713 mmHg 17%
    13:00 +38°C° 0 mm 4 m/s 712 mmHg 16%
    14:00 +40°C° 0 mm 4 m/s 712 mmHg 15%
    15:00 +40°C° 0 mm 4 m/s 711 mmHg 15%
    16:00 +38°C° 0 mm 4 m/s 711 mmHg 16%
    17:00 +38°C° 0 mm 4 m/s 711 mmHg 16%
    18:00 +36°C° 0 mm 4 m/s 711 mmHg 18%
    19:00 +34°C° 0 mm 3 m/s 712 mmHg 20%
    20:00 +31°C° 0 mm 3 m/s 712 mmHg 23%
    21:00 +30°C° 0 mm 3 m/s 712 mmHg 24%
    22:00 +30°C° 0 mm 2 m/s 712 mmHg 26%
    23:00 +29°C° 0 mm 2 m/s 712 mmHg 28%
    Arată mai mult